Precipitable_Water
0.56 0.60 0.58 0.49 0.33 0.33 0.31 0.37 0.41 0.39 0.44 0.56 0.65 0.68 0.77 0.80 0.72 0.61 0.94 1.26 1.39 1.33 1.39 1.31 1.33 1.32 1.35 1.41 1.42 1.41 1.43 1.44 1.49 1.50 1.49 1.38 1.23 1.19 1.18 1.20 1.24 1.30 1.26 1.22 1.17 1.11 1.06 1.03 0.99
0.60 0.62 0.49 0.44 0.35 0.32 0.31 0.37 0.36 0.42 0.47 0.53 0.59 0.62 0.78 0.81 0.90 0.87 1.01 1.18 1.29 1.35 1.41 1.34 1.33 1.34 1.33 1.37 1.41 1.41 1.41 1.41 1.43 1.44 1.42 1.33 1.25 1.18 1.26 1.33 1.29 1.28 1.24 1.19 1.16 1.16 1.13 1.08 1.02
0.56 0.55 0.46 0.43 0.30 0.28 0.33 0.35 0.36 0.39 0.41 0.50 0.61 0.77 0.86 0.86 0.91 0.98 1.11 1.15 1.29 1.34 1.42 1.38 1.34 1.37 1.37 1.38 1.37 1.40 1.39 1.42 1.43 1.39 1.35 1.30 1.28 1.19 1.23 1.26 1.22 1.21 1.19 1.18 1.19 1.16 1.12 1.07 1.06
0.53 0.50 0.46 0.28 0.28 0.32 0.32 0.33 0.40 0.43 0.45 0.38 0.55 0.73 0.81 1.01 0.97 1.06 1.14 1.19 1.23 1.32 1.39 1.41 1.38 1.40 1.38 1.39 1.38 1.36 1.36 1.40 1.45 1.41 1.41 1.33 1.30 1.29 1.34 1.25 1.19 1.16 1.18 1.16 1.11 1.05 1.00 0.95 0.98
0.62 0.53 0.35 0.31 0.28 0.30 0.32 0.35 0.38 0.52 0.45 0.41 0.43 0.86 1.02 1.13 1.16 1.09 1.09 1.18 1.14 1.24 1.40 1.41 1.33 1.37 1.37 1.36 1.35 1.35 1.34 1.37 1.39 1.42 1.38 1.35 1.36 1.39 1.29 1.22 1.20 1.15 1.12 1.06 0.93 0.83 0.77 0.73 0.80
0.49 0.45 0.34 0.36 0.32 0.33 0.34 0.34 0.37 0.52 0.56 0.56 0.51 0.93 1.16 1.23 1.03 1.01 1.08 1.12 1.22 1.25 1.33 1.39 1.33 1.31 1.31 1.28 1.27 1.29 1.31 1.33 1.34 1.37 1.38 1.37 1.36 1.37 1.32 1.29 1.23 1.11 1.01 0.88 0.77 0.72 0.69 0.66 0.74
0.42 0.40 0.34 0.36 0.30 0.29 0.34 0.35 0.36 0.39 0.51 0.68 0.78 0.70 1.01 1.21 1.05 1.01 1.08 1.13 1.23 1.33 1.32 1.31 1.26 1.27 1.25 1.25 1.25 1.26 1.28 1.29 1.31 1.36 1.39 1.39 1.38 1.38 1.37 1.32 1.21 1.10 0.97 0.83 0.74 0.72 0.70 0.69 0.73
0.41 0.38 0.31 0.32 0.27 0.29 0.35 0.35 0.35 0.34 0.58 0.72 0.60 0.74 0.89 1.16 1.02 1.02 1.02 1.07 1.17 1.28 1.27 1.24 1.21 1.23 1.25 1.29 1.31 1.32 1.31 1.32 1.31 1.34 1.35 1.38 1.39 1.38 1.34 1.28 1.22 1.11 0.96 0.83 0.80 0.79 0.80 0.76 0.78
0.42 0.29 0.30 0.34 0.31 0.32 0.35 0.30 0.36 0.37 0.40 0.48 0.64 0.58 1.01 1.09 0.92 0.92 0.92 0.96 1.02 1.17 1.20 1.22 1.22 1.26 1.28 1.31 1.33 1.34 1.35 1.32 1.34 1.34 1.31 1.32 1.33 1.31 1.26 1.19 1.17 1.08 0.97 0.87 0.84 0.83 0.83 0.83 0.81
0.38 0.31 0.34 0.39 0.35 0.32 0.33 0.33 0.32 0.35 0.36 0.38 0.52 0.62 0.90 0.88 0.78 0.73 0.78 0.83 0.93 1.03 1.18 1.24 1.25 1.26 1.27 1.34 1.37 1.38 1.38 1.37 1.37 1.34 1.34 1.34 1.33 1.29 1.21 1.19 1.15 1.05 0.96 0.87 0.82 0.81 0.81 0.86 0.88
0.40 0.31 0.37 0.38 0.37 0.34 0.33 0.34 0.38 0.36 0.35 0.37 0.38 0.47 0.80 0.88 0.82 0.74 0.79 0.89 0.90 1.08 1.14 1.22 1.25 1.27 1.26 1.27 1.40 1.45 1.46 1.46 1.43 1.41 1.36 1.36 1.34 1.24 1.17 1.16 1.13 1.03 0.97 0.90 0.86 0.83 0.81 0.89 0.83
0.37 0.40 0.39 0.38 0.40 0.37 0.33 0.37 0.36 0.37 0.37 0.42 0.42 0.44 0.73 0.82 0.85 0.85 0.85 0.89 0.93 0.99 1.17 1.23 1.31 1.31 1.36 1.40 1.45 1.49 1.45 1.44 1.41 1.40 1.40 1.32 1.30 1.20 1.14 1.12 1.09 1.05 0.96 0.91 0.86 0.78 0.89 0.93 0.88
0.43 0.44 0.44 0.43 0.42 0.38 0.39 0.36 0.36 0.37 0.43 0.46 0.44 0.44 0.43 0.47 0.68 0.80 0.88 1.06 1.05 0.96 1.09 1.29 1.35 1.37 1.41 1.41 1.43 1.42 1.41 1.40 1.38 1.35 1.36 1.34 1.29 1.17 1.18 1.16 1.12 1.08 1.02 0.97 0.90 0.80 0.84 0.87 0.89
0.47 0.46 0.46 0.46 0.43 0.43 0.39 0.38 0.39 0.39 0.44 0.43 0.45 0.46 0.49 0.51 0.53 0.73 0.87 1.03 1.10 1.07 1.04 1.22 1.34 1.38 1.41 1.37 1.36 1.34 1.37 1.36 1.32 1.36 1.36 1.35 1.32 1.26 1.20 1.18 1.13 1.09 1.03 1.00 0.96 0.84 0.85 0.84 0.87
0.49 0.40 0.41 0.42 0.43 0.41 0.43 0.33 0.33 0.41 0.45 0.44 0.44 0.47 0.52 0.54 0.62 0.66 0.82 0.94 1.09 1.12 1.12 1.15 1.22 1.37 1.37 1.36 1.36 1.35 1.34 1.35 1.33 1.29 1.29 1.29 1.30 1.23 1.16 1.17 1.10 1.08 1.00 0.98 0.93 0.89 0.86 0.85 0.85
0.39 0.39 0.34 0.42 0.42 0.43 0.39 0.25 0.38 0.41 0.43 0.42 0.43 0.44 0.46 0.50 0.59 0.71 0.82 0.95 1.07 1.14 1.21 1.24 1.29 1.31 1.32 1.36 1.40 1.35 1.34 1.32 1.30 1.27 1.26 1.26 1.28 1.27 1.19 1.13 1.08 1.06 1.01 0.90 0.88 0.88 0.87 0.85 0.84
0.44 0.35 0.36 0.36 0.43 0.41 0.37 0.30 0.40 0.46 0.45 0.42 0.42 0.45 0.45 0.51 0.56 0.68 0.78 0.89 1.04 1.17 1.20 1.35 1.39 1.33 1.35 1.35 1.42 1.42 1.39 1.34 1.32 1.30 1.24 1.26 1.27 1.24 1.21 1.14 1.16 1.08 0.96 0.91 0.91 0.90 0.88 0.84 0.84
0.39 0.38 0.36 0.31 0.37 0.38 0.35 0.33 0.38 0.41 0.39 0.41 0.45 0.47 0.46 0.53 0.55 0.64 0.72 0.73 0.81 0.99 1.23 1.41 1.44 1.38 1.35 1.34 1.36 1.39 1.39 1.38 1.38 1.32 1.28 1.29 1.27 1.27 1.23 1.20 1.16 1.07 0.97 0.91 0.91 0.87 0.88 0.88 0.87
0.36 0.29 0.27 0.31 0.35 0.34 0.34 0.35 0.38 0.42 0.42 0.41 0.43 0.46 0.47 0.48 0.57 0.66 0.70 0.71 0.75 0.84 1.03 1.24 1.30 1.28 1.20 1.13 1.12 1.15 1.17 1.22 1.22 1.25 1.28 1.27 1.25 1.22 1.18 1.16 1.06 1.02 0.97 0.94 0.92 0.89 0.85 0.90 0.91
0.36 0.34 0.34 0.39 0.42 0.39 0.37 0.36 0.40 0.40 0.38 0.40 0.41 0.44 0.46 0.50 0.59 0.70 0.78 0.75 0.73 0.76 0.81 1.11 1.09 1.10 1.09 1.03 1.07 1.07 1.10 1.13 1.09 1.12 1.12 1.14 1.11 1.12 1.12 1.13 1.07 1.03 1.01 0.96 0.90 0.86 0.84 0.90 0.94
0.43 0.41 0.40 0.37 0.41 0.41 0.37 0.33 0.37 0.38 0.39 0.40 0.42 0.46 0.50 0.53 0.61 0.69 0.72 0.70 0.72 0.72 0.79 0.88 0.93 0.93 0.97 0.95 0.95 0.93 0.95 0.94 0.91 0.93 0.96 0.99 1.05 1.10 1.09 1.12 1.09 1.04 1.03 0.97 0.91 0.87 0.84 0.86 0.91
0.38 0.44 0.42 0.37 0.36 0.30 0.38 0.23 0.32 0.36 0.37 0.37 0.42 0.45 0.50 0.56 0.61 0.67 0.64 0.64 0.66 0.67 0.73 0.75 0.75 0.81 0.83 0.84 0.82 0.81 0.78 0.73 0.81 0.85 0.92 0.92 0.99 0.95 1.01 1.08 1.09 1.03 1.05 1.01 0.96 0.94 0.90 0.94 0.86
0.40 0.42 0.39 0.38 0.34 0.32 0.32 0.28 0.31 0.35 0.34 0.36 0.43 0.48 0.55 0.58 0.59 0.59 0.61 0.65 0.67 0.67 0.67 0.66 0.66 0.69 0.73 0.72 0.75 0.74 0.71 0.72 0.75 0.76 0.79 0.84 0.90 0.92 0.99 0.95 1.08 1.04 1.02 1.04 0.99 1.01 0.96 0.99 0.95
0.45 0.40 0.38 0.37 0.34 0.25 0.32 0.31 0.30 0.30 0.32 0.37 0.45 0.54 0.57 0.56 0.55 0.58 0.59 0.61 0.62 0.65 0.68 0.71 0.71 0.71 0.71 0.70 0.70 0.67 0.65 0.66 0.65 0.67 0.71 0.77 0.82 0.88 0.90 0.95 0.96 0.95 0.94 0.96 0.97 1.02 0.98 0.99 1.01
0.44 0.37 0.28 0.26 0.28 0.26 0.37 0.32 0.33 0.36 0.37 0.41 0.48 0.54 0.59 0.63 0.66 0.66 0.64 0.61 0.62 0.64 0.67 0.69 0.70 0.69 0.73 0.69 0.67 0.67 0.66 0.63 0.63 0.66 0.68 0.71 0.73 0.78 0.80 0.86 0.85 0.89 0.93 0.91 0.93 0.95 0.93 0.95 0.94
0.42 0.41 0.33 0.24 0.25 0.24 0.36 0.28 0.34 0.41 0.41 0.44 0.51 0.56 0.59 0.58 0.59 0.58 0.59 0.60 0.58 0.57 0.59 0.66 0.65 0.65 0.68 0.75 0.68 0.69 0.68 0.67 0.66 0.66 0.70 0.73 0.74 0.77 0.81 0.81 0.81 0.81 0.81 0.82 0.85 0.86 0.89 0.90 0.91
0.43 0.37 0.45 0.36 0.36 0.28 0.29 0.34 0.42 0.44 0.46 0.47 0.49 0.57 0.57 0.56 0.57 0.57 0.58 0.57 0.55 0.54 0.54 0.53 0.54 0.65 0.66 0.66 0.73 0.71 0.72 0.75 0.77 0.80 0.79 0.77 0.79 0.79 0.80 0.81 0.78 0.79 0.79 0.79 0.78 0.78 0.79 0.82 0.84
0.46 0.48 0.37 0.40 0.29 0.24 0.27 0.30 0.33 0.41 0.45 0.50 0.52 0.56 0.59 0.61 0.60 0.55 0.52 0.51 0.50 0.50 0.49 0.48 0.49 0.65 0.69 0.63 0.72 0.70 0.76 0.85 0.87 0.86 0.88 0.88 0.86 0.85 0.84 0.82 0.80 0.78 0.78 0.78 0.76 0.74 0.75 0.74 0.75
0.46 0.41 0.41 0.39 0.36 0.29 0.24 0.28 0.42 0.43 0.47 0.51 0.55 0.60 0.61 0.56 0.52 0.49 0.48 0.47 0.45 0.45 0.47 0.49 0.52 0.50 0.60 0.71 0.78 0.81 0.78 0.86 0.85 0.78 0.77 0.76 0.82 0.84 0.83 0.82 0.80 0.77 0.75 0.74 0.72 0.72 0.72 0.71 0.71
0.55 0.48 0.46 0.37 0.32 0.35 0.32 0.26 0.46 0.48 0.50 0.51 0.52 0.53 0.52 0.51 0.47 0.46 0.46 0.43 0.42 0.44 0.52 0.58 0.53 0.51 0.57 0.70 0.70 0.91 0.74 0.82 0.74 0.68 0.69 0.72 0.77 0.82 0.84 0.82 0.80 0.77 0.74 0.72 0.71 0.69 0.70 0.69 0.69
Wind_Speed
7 6 5 6 5 5 9 8 1 2 4 3 4 4 2 4 6 2 3 5 4 4 5 8 9 10 10 10 9 10 9 9 8 7 7 7 5 4 4 4 5 5 4 4 4 4 5 5 4
6 6 5 4 4 6 3 2 1 2 3 4 4 5 2 3 2 0 2 4 4 5 6 8 10 11 11 11 11 11 10 10 9 8 7 8 6 5 5 4 5 5 5 5 5 5 5 5 5
4 4 4 3 5 6 3 1 4 4 3 6 5 4 4 2 2 3 4 4 4 5 6 8 10 11 11 12 12 12 11 11 10 9 9 8 8 7 6 6 7 7 7 6 6 5 6 6 6
3 3 1 4 7 1 2 3 4 5 3 6 6 3 3 3 3 2 2 3 4 5 5 6 8 9 11 12 12 12 12 11 10 10 10 9 9 8 8 9 9 8 8 7 7 7 7 7 6
2 3 3 2 8 1 3 4 4 3 4 4 6 2 3 2 1 1 1 2 3 3 3 4 7 8 9 11 12 12 12 12 11 10 11 10 10 10 9 10 10 9 9 9 9 9 8 8 7
4 4 6 8 5 2 3 3 4 3 4 3 4 6 1 2 3 2 1 2 2 1 2 2 5 6 7 8 10 11 12 13 12 11 11 10 11 11 11 10 11 11 11 10 10 10 10 9 9
5 5 7 9 6 6 4 4 5 4 6 4 3 4 5 7 3 3 2 2 3 2 3 3 5 6 7 8 9 10 11 12 13 12 12 11 11 12 12 12 12 12 12 12 12 12 11 11 10
7 8 11 8 7 5 3 5 3 6 2 4 6 2 5 5 4 4 4 5 6 4 5 5 6 7 8 9 10 11 11 12 12 13 13 13 13 13 14 13 14 13 13 13 13 12 12 12 11
7 7 8 10 5 5 2 5 6 6 9 6 4 5 3 5 6 6 7 7 8 8 8 8 8 9 10 11 12 12 13 13 13 14 15 15 15 16 15 15 15 15 14 14 14 13 13 13 12
6 9 9 5 5 7 7 7 8 7 8 10 10 10 6 7 8 9 10 10 10 11 10 10 11 12 12 13 14 15 15 15 16 17 17 17 17 17 17 17 17 17 16 16 15 15 14 12 12
10 11 13 8 7 9 10 10 9 10 9 9 9 8 9 9 10 11 11 12 12 13 13 14 14 15 15 16 16 16 17 17 18 18 19 20 19 18 19 19 18 18 18 18 18 17 16 15 14
14 13 14 14 12 9 11 11 12 12 13 13 11 10 11 12 12 13 14 14 14 16 16 16 17 17 17 17 18 18 19 19 20 20 22 22 21 21 21 21 21 21 21 20 19 19 19 19 18
13 15 16 15 13 14 14 15 15 15 14 11 12 15 16 18 18 16 17 16 16 16 18 18 18 18 19 19 20 21 21 22 22 23 23 23 24 24 24 23 23 23 23 23 22 22 21 20 19
16 17 17 17 17 16 16 17 17 17 12 12 13 15 16 17 18 18 17 16 17 18 19 21 20 20 20 21 21 21 22 24 24 24 24 25 26 26 26 26 26 26 25 25 25 25 24 23 23
14 17 18 20 20 17 15 17 19 17 12 13 16 14 13 16 16 17 18 18 19 20 21 22 23 23 23 24 24 24 25 25 26 27 28 28 29 28 28 28 28 28 28 27 27 27 26 25 24
16 15 15 8 11 10 11 16 16 7 12 15 16 16 16 17 16 18 19 20 21 22 24 23 23 25 26 26 27 27 27 28 29 29 30 30 31 31 31 30 30 30 29 29 28 28 28 27 26
13 12 10 8 8 9 11 14 13 12 15 19 20 19 19 17 16 17 17 19 21 22 23 25 24 24 26 28 29 30 30 30 31 31 32 32 33 34 33 33 33 32 31 30 30 30 29 29 29
9 12 12 13 9 13 15 18 19 22 24 23 20 19 19 17 15 17 18 20 21 21 21 24 25 25 27 29 30 32 33 33 33 33 33 35 35 36 36 36 35 35 33 32 32 31 31 31 30
12 14 15 15 16 18 19 22 21 23 24 24 21 20 22 16 16 18 19 21 22 22 22 23 25 28 28 29 30 31 32 33 34 35 36 37 37 36 36 37 37 36 35 34 35 33 33 33 32
12 14 16 17 18 18 21 26 26 26 25 24 22 20 14 15 16 18 18 19 19 20 21 23 24 27 29 30 31 31 33 34 35 35 35 35 36 35 35 36 37 39 37 38 37 37 35 34 35
14 16 17 19 20 23 26 27 24 18 16 14 15 13 13 14 16 18 18 19 20 22 23 23 25 27 27 28 29 30 31 33 33 34 34 35 35 36 37 37 39 40 40 40 40 39 38 36 37
17 17 19 21 22 22 22 25 25 25 21 17 16 15 14 16 18 19 19 21 22 23 23 24 25 27 27 28 30 31 32 34 35 36 36 37 37 38 39 39 39 40 42 43 43 43 43 40 40
20 19 21 23 25 26 25 24 25 23 22 17 17 17 17 17 18 18 20 23 24 25 26 27 28 29 29 30 32 33 35 36 36 37 38 39 40 41 42 42 42 42 41 42 42 43 47 40 43
20 21 23 25 24 23 25 23 22 17 17 17 16 17 18 19 20 22 24 27 27 29 31 31 31 32 32 33 34 35 36 35 35 37 38 39 41 42 44 44 44 45 45 43 45 45 43 42 41
19 20 20 18 16 22 20 22 22 24 20 15 17 19 21 21 22 24 26 28 31 32 33 34 34 35 35 35 36 35 34 35 37 37 38 39 40 42 42 43 44 45 44 46 46 45 44 42 40
21 22 20 24 25 31 29 25 24 21 15 16 18 20 21 22 25 28 29 31 33 36 36 35 36 36 34 35 34 34 36 36 36 37 37 37 39 40 40 42 43 44 45 46 46 45 43 44 41
19 20 23 28 29 30 24 26 24 15 16 18 19 20 23 24 27 29 31 34 36 37 36 36 38 37 36 36 36 35 36 37 37 37 38 40 38 38 37 37 36 35 35 36 39 42 42 42 37
27 26 26 21 21 24 24 26 25 19 19 21 22 22 25 28 30 33 36 39 39 39 38 38 37 36 37 38 37 38 38 37 37 37 36 36 35 33 29 27 26 26 26 25 28 32 34 35 38
27 27 26 26 27 27 31 21 16 16 18 19 21 24 27 30 34 37 38 38 37 38 38 37 36 37 39 39 39 38 36 36 35 36 36 36 32 28 26 25 22 20 19 20 17 21 25 27 28
31 31 29 27 28 29 32 39 25 24 25 24 25 28 31 35 37 38 37 38 38 37 37 35 35 37 37 38 38 32 38 34 33 32 31 28 30 28 25 23 22 19 16 15 13 14 16 20 22
Wind_Direction
272 258 251 258 246 243 249 255 221 272 217 271 273 280 327 5 327 285 239 268 271 247 244 228 224 223 222 223 225 226 230 235 244 254 260 264 273 286 297 313 319 325 330 335 337 340 343 338 330
260 256 242 249 239 248 290 135 197 358 318 271 231 225 205 66 19 282 266 284 272 265 256 239 230 227 227 228 229 231 234 236 246 254 265 257 264 275 283 296 315 316 315 316 319 323 329 330 326
225 218 235 230 215 255 65 22 316 310 261 243 232 242 261 268 329 294 302 284 281 281 263 243 231 229 230 231 231 233 235 237 248 252 254 255 257 265 268 279 299 302 303 303 303 307 311 315 317
190 201 237 218 247 313 329 343 315 276 263 252 249 203 237 283 273 265 278 288 283 283 265 244 231 230 230 230 231 233 235 237 255 251 251 254 257 260 268 277 288 291 293 291 292 295 299 302 305
143 181 216 255 248 272 248 306 307 313 277 255 242 327 306 311 310 266 272 284 296 277 258 246 227 228 230 229 230 233 236 241 256 253 251 258 258 262 270 275 282 286 287 286 285 287 289 291 292
248 249 255 290 187 224 267 291 273 279 272 260 261 172 203 268 281 301 304 294 310 278 277 252 222 224 225 226 230 236 240 246 252 250 254 258 258 263 268 274 279 282 283 282 282 282 282 282 281
228 258 272 284 275 279 244 280 280 287 288 240 286 292 247 257 266 267 293 296 294 286 285 270 232 230 231 232 236 240 245 249 251 251 253 258 260 263 267 272 275 279 280 280 279 280 279 277 273
259 280 279 268 283 310 227 277 281 260 300 243 287 306 246 206 253 263 282 278 271 276 268 271 244 240 242 243 243 245 249 249 250 250 253 258 262 265 267 269 273 275 276 277 278 278 277 275 269
265 271 265 279 239 268 225 277 252 271 266 263 263 298 225 235 261 274 274 274 267 269 261 260 253 251 249 249 249 250 250 252 253 254 255 258 263 265 266 268 271 273 273 273 274 275 276 274 266
245 252 279 317 304 281 275 267 266 274 270 252 257 261 250 259 269 266 268 267 263 261 255 256 257 255 255 255 254 252 253 255 255 257 258 261 263 264 263 266 268 269 270 270 271 272 271 272 267
252 258 274 296 287 280 286 281 276 272 267 273 277 262 247 260 267 268 269 267 265 261 258 260 259 258 259 260 257 256 255 256 258 259 260 263 262 263 262 265 266 267 268 268 268 269 267 265 264
258 268 273 274 276 276 270 276 278 277 276 278 276 280 257 258 263 268 267 270 265 263 263 261 260 260 262 259 258 258 258 259 261 261 263 262 262 264 264 265 265 267 266 266 266 265 264 267 261
260 271 272 270 269 269 269 268 272 273 271 277 279 279 274 271 267 270 272 264 266 265 263 263 262 262 261 260 262 260 261 261 263 266 264 263 263 264 265 266 265 265 265 265 265 262 263 263 260
275 281 280 274 268 266 269 272 271 268 260 270 280 280 276 270 271 267 268 269 268 270 268 264 263 261 262 262 262 263 263 263 265 263 264 264 265 266 265 265 266 266 265 265 264 263 262 260 258
284 281 276 270 258 257 264 277 265 260 256 268 276 276 284 283 280 271 271 270 271 270 268 264 260 261 262 263 264 266 266 266 267 267 267 265 265 267 266 265 266 265 264 264 264 262 261 260 259
279 269 277 287 234 251 274 282 288 240 256 273 282 281 280 279 276 275 271 273 273 274 269 264 263 262 264 264 266 266 267 269 270 270 268 267 266 265 267 266 266 264 264 264 262 260 259 257 256
262 267 250 290 251 258 257 276 270 280 274 277 278 279 282 276 284 284 280 281 278 274 273 265 265 267 268 268 267 267 269 270 272 272 270 268 267 266 266 266 266 263 265 263 261 259 258 255 254
314 292 294 292 278 275 274 276 276 281 283 282 280 279 278 272 283 286 290 288 288 280 279 270 271 271 271 272 270 270 270 271 273 272 272 270 269 267 266 266 264 262 263 262 260 258 256 254 252
285 281 281 282 284 289 289 284 284 286 280 279 275 273 270 270 282 289 290 288 285 281 281 273 274 276 275 274 272 272 272 272 272 272 273 271 269 267 266 265 263 261 260 262 260 257 254 254 251
281 282 284 285 285 291 290 289 290 286 279 271 272 273 269 273 281 289 292 290 289 289 284 280 278 280 280 278 275 275 273 274 276 275 275 272 269 268 267 265 264 262 261 262 260 256 254 254 250
281 278 290 297 296 292 291 288 289 286 287 282 279 273 273 274 282 286 291 291 294 293 290 286 286 284 282 281 278 277 276 276 277 276 274 272 269 270 268 267 264 264 261 262 258 255 251 253 250
286 292 299 295 296 293 301 296 294 288 271 270 271 270 273 278 288 287 287 293 295 293 290 289 289 287 285 284 282 280 279 279 278 278 275 273 271 270 269 269 266 267 264 260 259 257 248 251 249
286 294 292 292 290 293 290 287 294 292 276 254 266 270 277 286 287 285 290 295 295 294 292 292 290 288 286 286 284 283 283 282 281 279 276 275 273 272 271 270 268 265 264 260 263 259 246 250 248
287 289 292 288 283 279 286 279 291 304 302 258 259 273 279 284 283 286 291 294 294 294 293 292 290 288 288 287 286 285 284 282 282 280 278 276 275 273 273 270 269 265 262 262 261 254 249 254 250
277 283 292 295 293 287 303 299 296 295 284 266 262 272 279 283 283 286 291 293 295 294 293 292 290 290 288 288 288 286 284 284 284 283 282 280 278 276 275 272 270 265 264 261 258 253 252 252 242
284 286 286 290 294 292 294 286 286 288 284 274 271 272 277 283 286 289 292 294 297 297 295 292 291 291 290 289 289 287 287 287 287 287 284 283 281 278 274 272 271 269 265 261 258 253 249 246 242
284 275 285 285 287 290 290 286 292 287 287 282 276 276 280 282 288 291 295 298 300 300 297 296 294 290 291 293 289 290 289 288 289 288 286 284 281 278 276 273 272 269 265 261 257 250 246 241 240
275 282 285 280 285 285 289 293 294 280 278 278 279 278 282 285 289 293 296 297 298 297 296 296 295 290 290 292 288 290 290 287 289 292 288 283 281 276 274 270 267 264 262 262 256 245 241 241 239
274 273 269 276 276 283 290 288 293 291 292 289 284 284 287 290 293 295 297 297 299 298 297 295 294 293 291 290 290 289 291 287 287 288 286 281 275 273 268 262 258 258 260 257 253 240 235 229 228
272 271 270 272 277 273 276 280 278 293 289 282 283 285 287 292 294 296 296 297 298 298 296 296 297 295 294 294 295 284 292 285 284 285 287 286 272 264 264 252 248 254 249 244 240 228 222 217 215